Location: *
(55.5817°S, 142.4781°W)
Time: 09:35:27
(UTC+00:00)

Cosmos 1674 Rocket - Pass Details

Date: 29 April 2025
Orbit: 596 x 624 km, 82.5° (Epoch: 18 May)

Event Time Altitude Azimuth Distance (km) Brightness Sun altitude
Rises 15:40:11 0° 194° (SSW) 2,946 6.8 -10.3°
Reaches altitude 10° 15:42:26 10° 195° (SSW) 2,035 6.0 -10.0°
Maximum altitude 15:46:56 73° 278° (W) 672 3.6 -9.3°
Drops below altitude 10° 15:51:25 10° 2° (N) 2,017 6.4 -8.7°
Sets 15:53:38 0° 4° (N) 2,918 7.3 -8.4°
